Time,TemperatureF,DewpointF,PressureIn,WindDirection,WindDirectionDegrees,WindSpeedMPH,WindSpeedGustMPH,Humidity,HourlyPrecipIn,Conditions,Clouds,dailyrainin,SoftwareType,DateUTC
2013-11-25 00:12:00,31.9,14.0,30.51,North,353,0.0,-999.0,47,-99.99,,,0.00,weatherlink.com 1.10,2013-11-25 05:12:00,
2013-11-25 00:27:00,31.8,14.0,30.51,WNW,298,0.0,-999.0,49,-99.99,,,0.00,weatherlink.com 1.10,2013-11-25 05:27:00,
2013-11-25 00:42:00,31.6,15.0,30.51,NNE,25,0.0,-999.0,50,-99.99,,,0.00,weatherlink.com 1.10,2013-11-25 05:42:00,
2013-11-25 00:57:00,31.2,15.0,30.51,NNE,23,1.0,-999.0,52,-99.99,,,0.00,weatherlink.com 1.10,2013-11-25 05:57:00,
2013-11-25 01:12:00,30.9,15.0,30.51,NNW,341,0.0,-999.0,51,-99.99,,,0.00,weatherlink.com 1.10,2013-11-25 06:12:00,
2013-11-25 01:27:00,31.0,15.0,30.50,NNE,18,0.0,-999.0,51,-99.99,,,0.00,weatherlink.com 1.10,2013-11-25 06:27:00,
2013-11-25 01:43:00,30.6,15.0,30.50,WNW,292,0.0,-999.0,52,-99.99,,,0.00,weatherlink.com 1.10,2013-11-25 06:43:00,
2013-11-25 01:58:00,30.3,15.0,30.50,NE,56,2.0,-999.0,54,-99.99,,,0.00,weatherlink.com 1.10,2013-11-25 06:58:00,
2013-11-25 02:13:00,30.3,16.0,30.50,NNE,25,0.0,-999.0,55,-99.99,,,0.00,weatherlink.com 1.10,2013-11-25 07:13:00,
2013-11-25 02:28:00,30.3,16.0,30.50,North,4,0.0,-999.0,56,-99.99,,,0.00,weatherlink.com 1.10,2013-11-25 07:28:00,
2013-11-25 02:43:00,30.2,16.0,30.51,North,356,0.0,-999.0,57,-99.99,,,0.00,weatherlink.com 1.10,2013-11-25 07:43:00,
2013-11-25 02:58:00,29.8,16.0,30.51,North,359,0.0,-999.0,57,-99.99,,,0.00,weatherlink.com 1.10,2013-11-25 07:58:00,
2013-11-25 03:13:00,29.4,17.0,30.51,NNE,33,0.0,-999.0,60,-99.99,,,0.00,weatherlink.com 1.10,2013-11-25 08:13:00,
2013-11-25 03:28:00,29.1,18.0,30.52,North,7,0.0,-999.0,63,-99.99,,,0.00,weatherlink.com 1.10,2013-11-25 08:28:00,
2013-11-25 03:43:00,28.6,18.0,30.52,NNE,18,0.0,-999.0,66,-99.99,,,0.00,weatherlink.com 1.10,2013-11-25 08:43:00,
2013-11-25 03:58:00,28.4,19.0,30.52,NNE,18,0.0,-999.0,68,-99.99,,,0.00,weatherlink.com 1.10,2013-11-25 08:58:00,
2013-11-25 04:13:00,28.2,20.0,30.52,NW,323,0.0,-999.0,70,-99.99,,,0.00,weatherlink.com 1.10,2013-11-25 09:13:00,
2013-11-25 04:28:00,28.2,20.0,30.52,NNW,333,0.0,-999.0,71,-99.99,,,0.00,weatherlink.com 1.10,2013-11-25 09:28:00,
2013-11-25 04:44:00,28.3,20.0,30.53,North,360,1.0,-999.0,72,-99.99,,,0.00,weatherlink.com 1.10,2013-11-25 09:44:00,
2013-11-25 04:59:00,28.4,20.0,30.54,NNW,344,2.0,-999.0,72,-99.99,,,0.00,weatherlink.com 1.10,2013-11-25 09:59:00,
2013-11-25 05:14:00,28.8,21.0,30.54,East,83,0.0,-999.0,72,-99.99,,,0.00,weatherlink.com 1.10,2013-11-25 10:14:00,
2013-11-25 05:29:00,28.9,21.0,30.55,North,8,1.0,-999.0,72,-99.99,,,0.00,weatherlink.com 1.10,2013-11-25 10:29:00,
2013-11-25 05:44:00,28.8,21.0,30.55,NNW,343,0.0,-999.0,73,-99.99,,,0.00,weatherlink.com 1.10,2013-11-25 10:44:00,
2013-11-25 05:59:00,27.9,21.0,30.55,North,359,1.0,-999.0,74,-99.99,,,0.00,weatherlink.com 1.10,2013-11-25 10:59:00,
2013-11-25 06:14:00,27.7,21.0,30.56,North,351,0.0,-999.0,75,-99.99,,,0.00,weatherlink.com 1.10,2013-11-25 11:14:00,
2013-11-25 06:29:00,28.1,21.0,30.56,NE,48,0.0,-999.0,74,-99.99,,,0.00,weatherlink.com 1.10,2013-11-25 11:29:00,
2013-11-25 06:44:00,28.7,21.0,30.55,NNE,18,0.0,-999.0,73,-99.99,,,0.00,weatherlink.com 1.10,2013-11-25 11:44:00,
2013-11-25 06:59:00,29.4,21.0,30.55,NW,320,0.0,-999.0,71,-99.99,,,0.00,weatherlink.com 1.10,2013-11-25 11:59:00,
2013-11-25 07:14:00,30.1,21.0,30.55,ENE,77,1.0,-999.0,70,-99.99,,,0.00,weatherlink.com 1.10,2013-11-25 12:14:00,
2013-11-25 07:30:00,30.3,22.0,30.55,WNW,301,0.0,-999.0,70,-99.99,,,0.00,weatherlink.com 1.10,2013-11-25 12:30:00,
2013-11-25 07:45:00,31.0,23.0,30.54,North,6,1.0,-999.0,72,-99.99,,,0.00,weatherlink.com 1.10,2013-11-25 12:45:00,
2013-11-25 08:00:00,32.3,24.0,30.56,NE,35,1.0,-999.0,72,-99.99,,,0.00,weatherlink.com 1.10,2013-11-25 13:00:00,
2013-11-25 08:15:00,34.1,25.0,30.55,WNW,301,2.0,-999.0,70,-99.99,,,0.00,weatherlink.com 1.10,2013-11-25 13:15:00,
2013-11-25 08:30:00,35.4,26.0,30.56,NNE,25,1.0,-999.0,68,-99.99,,,0.00,weatherlink.com 1.10,2013-11-25 13:30:00,
2013-11-25 08:45:00,36.4,27.0,30.56,NW,313,0.0,-999.0,68,-99.99,,,0.00,weatherlink.com 1.10,2013-11-25 13:45:00,
2013-11-25 09:00:00,37.2,27.0,30.56,SE,125,7.0,-999.0,67,-99.99,,,0.00,weatherlink.com 1.10,2013-11-25 14:00:00,
2013-11-25 09:15:00,37.7,28.0,30.57,North,5,4.0,-999.0,67,-99.99,,,0.00,weatherlink.com 1.10,2013-11-25 14:15:00,
2013-11-25 09:30:00,38.6,29.0,30.57,NNE,27,4.0,-999.0,68,-99.99,,,0.00,weatherlink.com 1.10,2013-11-25 14:30:00,
2013-11-25 09:46:00,38.6,28.0,30.57,NE,47,2.0,-999.0,66,-99.99,,,0.00,weatherlink.com 1.10,2013-11-25 14:46:00,
2013-11-25 10:01:00,38.8,29.0,30.57,East,99,6.0,-999.0,68,-99.99,,,0.00,weatherlink.com 1.10,2013-11-25 15:01:00,
2013-11-25 10:16:00,39.6,30.0,30.57,East,79,1.0,-999.0,68,-99.99,,,0.00,weatherlink.com 1.10,2013-11-25 15:16:00,
2013-11-25 10:31:00,40.2,30.0,30.58,North,360,1.0,-999.0,67,-99.99,,,0.00,weatherlink.com 1.10,2013-11-25 15:31:00,
2013-11-25 10:46:00,40.1,30.0,30.57,ENE,62,0.0,-999.0,68,-99.99,,,0.00,weatherlink.com 1.10,2013-11-25 15:46:00,
2013-11-25 11:01:00,41.1,31.0,30.57,ENE,62,3.0,-999.0,67,-99.99,,,0.00,weatherlink.com 1.10,2013-11-25 16:01:00,
2013-11-25 11:16:00,41.9,30.0,30.57,NNE,22,4.0,-999.0,64,-99.99,,,0.00,weatherlink.com 1.10,2013-11-25 16:16:00,
2013-11-25 11:31:00,41.8,31.0,30.57,ENE,77,4.0,-999.0,66,-99.99,,,0.00,weatherlink.com 1.10,2013-11-25 16:31:00,
2013-11-25 11:46:00,41.7,31.0,30.56,NW,323,0.0,-999.0,65,-99.99,,,0.00,weatherlink.com 1.10,2013-11-25 16:46:00,
2013-11-25 12:01:00,42.6,31.0,30.55,ENE,71,5.0,-999.0,63,-99.99,,,0.00,weatherlink.com 1.10,2013-11-25 17:01:00,
2013-11-25 12:16:00,42.5,31.0,30.55,NE,50,0.0,-999.0,63,-99.99,,,0.00,weatherlink.com 1.10,2013-11-25 17:16:00,
2013-11-25 12:47:00,43.6,32.0,30.54,SE,128,1.0,-999.0,64,-99.99,,,0.00,weatherlink.com 1.10,2013-11-25 17:47:00,
2013-11-25 13:02:00,43.7,33.0,30.53,SSW,195,3.0,-999.0,65,-99.99,,,0.00,weatherlink.com 1.10,2013-11-25 18:02:00,
2013-11-25 13:17:00,43.3,32.0,30.52,North,8,3.0,-999.0,64,-99.99,,,0.00,weatherlink.com 1.10,2013-11-25 18:17:00,
2013-11-25 13:32:00,43.6,32.0,30.52,SSE,167,1.0,-999.0,64,-99.99,,,0.00,weatherlink.com 1.10,2013-11-25 18:32:00,
2013-11-25 13:47:00,44.1,33.0,30.52,South,175,1.0,-999.0,64,-99.99,,,0.00,weatherlink.com 1.10,2013-11-25 18:47:00,
2013-11-25 14:02:00,44.3,31.0,30.51,WNW,294,0.0,-999.0,61,-99.99,,,0.00,weatherlink.com 1.10,2013-11-25 19:02:00,
2013-11-25 14:17:00,43.7,30.0,30.51,ESE,116,4.0,-999.0,60,-99.99,,,0.00,weatherlink.com 1.10,2013-11-25 19:17:00,
2013-11-25 14:32:00,43.7,30.0,30.51,SSE,160,0.0,-999.0,60,-99.99,,,0.00,weatherlink.com 1.10,2013-11-25 19:32:00,
2013-11-25 15:03:00,44.0,31.0,30.50,NNE,22,0.0,-999.0,61,-99.99,,,0.00,weatherlink.com 1.10,2013-11-25 20:03:00,
2013-11-25 15:17:00,43.7,31.0,30.50,ENE,67,3.0,-999.0,61,-99.99,,,0.00,weatherlink.com 1.10,2013-11-25 20:17:00,
2013-11-25 15:32:00,43.6,31.0,30.51,NNE,20,0.0,-999.0,62,-99.99,,,0.00,weatherlink.com 1.10,2013-11-25 20:32:00,
2013-11-25 15:48:00,43.1,31.0,30.50,NNE,20,2.0,-999.0,63,-99.99,,,0.00,weatherlink.com 1.10,2013-11-25 20:48:00,
2013-11-25 16:03:00,42.4,30.0,30.50,NE,40,1.0,-999.0,63,-99.99,,,0.00,weatherlink.com 1.10,2013-11-25 21:03:00,
2013-11-25 16:18:00,41.3,30.0,30.49,ENE,62,0.0,-999.0,65,-99.99,,,0.00,weatherlink.com 1.10,2013-11-25 21:18:00,
2013-11-25 16:33:00,41.1,30.0,30.48,NE,37,2.0,-999.0,66,-99.99,,,0.00,weatherlink.com 1.10,2013-11-25 21:33:00,
2013-11-25 16:48:00,40.3,30.0,30.48,NE,42,0.0,-999.0,68,-99.99,,,0.00,weatherlink.com 1.10,2013-11-25 21:48:00,
2013-11-25 17:03:00,39.4,30.0,30.49,NNW,342,0.0,-999.0,70,-99.99,,,0.00,weatherlink.com 1.10,2013-11-25 22:03:00,
2013-11-25 17:18:00,38.7,30.0,30.49,NE,40,0.0,-999.0,70,-99.99,,,0.00,weatherlink.com 1.10,2013-11-25 22:18:00,
2013-11-25 17:33:00,37.8,30.0,30.48,NE,35,0.0,-999.0,72,-99.99,,,0.00,weatherlink.com 1.10,2013-11-25 22:33:00,
2013-11-25 17:48:00,36.9,29.0,30.48,NE,35,0.0,-999.0,74,-99.99,,,0.00,weatherlink.com 1.10,2013-11-25 22:48:00,
2013-11-25 18:03:00,36.4,29.0,30.48,NE,35,0.0,-999.0,74,-99.99,,,0.00,weatherlink.com 1.10,2013-11-25 23:03:00,
2013-11-25 18:18:00,35.9,29.0,30.48,NE,38,0.0,-999.0,75,-99.99,,,0.00,weatherlink.com 1.10,2013-11-25 23:18:00,
2013-11-25 18:33:00,36.2,30.0,30.48,NE,41,0.0,-999.0,77,-99.99,,,0.00,weatherlink.com 1.10,2013-11-25 23:33:00,
2013-11-25 18:48:00,37.0,31.0,30.48,NNE,31,0.0,-999.0,78,-99.99,,,0.00,weatherlink.com 1.10,2013-11-25 23:48:00,
2013-11-25 19:04:00,37.4,31.0,30.47,North,10,3.0,-999.0,79,-99.99,,,0.00,weatherlink.com 1.10,2013-11-26 00:04:00,
2013-11-25 19:19:00,37.9,32.0,30.47,NNW,347,5.0,-999.0,80,-99.99,,,0.00,weatherlink.com 1.10,2013-11-26 00:19:00,
2013-11-25 19:34:00,38.5,33.0,30.46,NE,38,1.0,-999.0,80,-99.99,,,0.00,weatherlink.com 1.10,2013-11-26 00:34:00,
2013-11-25 19:49:00,38.9,34.0,30.46,NE,37,1.0,-999.0,81,-99.99,,,0.00,weatherlink.com 1.10,2013-11-26 00:49:00,
2013-11-25 20:04:00,39.1,34.0,30.46,ENE,59,1.0,-999.0,82,-99.99,,,0.00,weatherlink.com 1.10,2013-11-26 01:04:00,
2013-11-25 20:19:00,39.3,35.0,30.46,NE,47,2.0,-999.0,83,-99.99,,,0.00,weatherlink.com 1.10,2013-11-26 01:19:00,
2013-11-25 20:34:00,39.5,35.0,30.45,SW,220,0.0,-999.0,84,-99.99,,,0.00,weatherlink.com 1.10,2013-11-26 01:34:00,
2013-11-25 20:49:00,39.4,35.0,30.45,NNE,16,0.0,-999.0,85,-99.99,,,0.00,weatherlink.com 1.10,2013-11-26 01:49:00,
2013-11-25 21:04:00,39.4,35.0,30.44,NE,52,0.0,-999.0,85,-99.99,,,0.00,weatherlink.com 1.10,2013-11-26 02:04:00,
2013-11-25 21:19:00,39.3,36.0,30.44,East,89,0.0,-999.0,86,-99.99,,,0.00,weatherlink.com 1.10,2013-11-26 02:19:00,
2013-11-25 21:34:00,39.2,36.0,30.44,NE,38,0.0,-999.0,87,-99.99,,,0.00,weatherlink.com 1.10,2013-11-26 02:34:00,
2013-11-25 21:50:00,39.0,36.0,30.43,NNW,337,0.0,-999.0,87,-99.99,,,0.00,weatherlink.com 1.10,2013-11-26 02:50:00,
2013-11-25 22:05:00,39.0,36.0,30.42,NE,49,0.0,-999.0,88,-99.99,,,0.00,weatherlink.com 1.10,2013-11-26 03:05:00,
2013-11-25 22:20:00,39.1,36.0,30.43,ENE,68,0.0,-999.0,89,-99.99,,,0.00,weatherlink.com 1.10,2013-11-26 03:20:00,
2013-11-25 22:35:00,39.2,37.0,30.40,NE,47,2.0,-999.0,90,-99.99,,,0.00,weatherlink.com 1.10,2013-11-26 03:35:00,
2013-11-25 22:50:00,39.5,37.0,30.39,NNE,18,2.0,-999.0,90,-99.99,,,0.00,weatherlink.com 1.10,2013-11-26 03:50:00,
2013-11-25 23:05:00,40.2,38.0,30.39,NE,48,0.0,-999.0,91,-99.99,,,0.00,weatherlink.com 1.10,2013-11-26 04:05:00,
2013-11-25 23:20:00,40.7,38.0,30.39,ENE,69,0.0,-999.0,91,-99.99,,,0.00,weatherlink.com 1.10,2013-11-26 04:20:00,
2013-11-25 23:35:00,40.6,38.0,30.38,NNE,12,1.0,-999.0,91,-99.99,,,0.00,weatherlink.com 1.10,2013-11-26 04:35:00,
2013-11-25 23:50:00,41.0,39.0,30.38,NNE,27,0.0,-999.0,92,-99.99,,,0.00,weatherlink.com 1.10,2013-11-26 04:50:00,